• Em Portugal
  • Lista de países
  • Para 7 dias
  • Temperatura da água
  • Mapas de satélite
  • Mapa do tempo
  • Widgets de tempo
  • user-avatar
    Iniciar Sessão

    Previsão horária em Resht

    Hoje, 16 Julho, Segunda-feira

    Tempo Temperatura Precipitação Vento Pressão Humidade
    00:00 +30°C° 0 mm 1 m/s 749 mmHg 83%
    01:00 +29°C° 0 mm 1 m/s 750 mmHg 83%
    02:00 +29°C° 0 mm 1 m/s 750 mmHg 82%
    03:00 +29°C° 0 mm 1 m/s 750 mmHg 82%
    04:00 +29°C° 0 mm 2 m/s 750 mmHg 80%
    05:00 +30°C° 0 mm 2 m/s 751 mmHg 79%
    06:00 +30°C° 0 mm 2 m/s 751 mmHg 78%
    07:00 +32°C° 0 mm 2 m/s 751 mmHg 71%
    08:00 +34°C° 0 mm 3 m/s 751 mmHg 64%
    09:00 +36°C° 0 mm 3 m/s 752 mmHg 57%
    10:00 +36°C° 0 mm 3 m/s 751 mmHg 54%
    11:00 +37°C° 0 mm 3 m/s 751 mmHg 51%
    12:00 +38°C° 0 mm 4 m/s 751 mmHg 47%
    13:00 +38°C° 0 mm 4 m/s 751 mmHg 49%
    14:00 +38°C° 0 mm 4 m/s 750 mmHg 51%
    15:00 +37°C° 0 mm 4 m/s 750 mmHg 54%
    16:00 +36°C° 0 mm 3 m/s 750 mmHg 59%
    17:00 +34°C° 0 mm 3 m/s 750 mmHg 65%
    18:00 +33°C° 0 mm 3 m/s 751 mmHg 71%
    19:00 +31°C° 0 mm 3 m/s 751 mmHg 74%
    20:00 +30°C° 0 mm 2 m/s 752 mmHg 78%
    21:00 +29°C° 0 mm 2 m/s 753 mmHg 82%
    22:00 +29°C° 0,1 mm 2 m/s 753 mmHg 81%
    23:00 +29°C° 0,1 mm 2 m/s 753 mmHg 81%

    Amanhã, 17 Julho, Terça-feira

    Tempo Temperatura Precipitação Vento Pressão Humidade
    00:00 +28°C° 0,1 mm 2 m/s 754 mmHg 81%
    01:00 +28°C° 0,2 mm 2 m/s 754 mmHg 82%
    02:00 +28°C° 0,2 mm 2 m/s 754 mmHg 82%
    03:00 +28°C° 0,2 mm 2 m/s 754 mmHg 82%
    04:00 +28°C° 0,2 mm 2 m/s 754 mmHg 82%
    05:00 +28°C° 0,2 mm 2 m/s 755 mmHg 82%
    06:00 +28°C° 0,2 mm 2 m/s 755 mmHg 82%
    07:00 +29°C° 0,2 mm 2 m/s 755 mmHg 80%
    08:00 +30°C° 0,2 mm 2 m/s 755 mmHg 77%
    09:00 +31°C° 0,2 mm 2 m/s 755 mmHg 75%
    10:00 +31°C° 0,1 mm 2 m/s 754 mmHg 74%
    11:00 +31°C° 0,1 mm 2 m/s 754 mmHg 73%
    12:00 +33°C° 0,1 mm 3 m/s 753 mmHg 72%
    13:00 +33°C° 0,1 mm 3 m/s 753 mmHg 70%
    14:00 +34°C° 0,1 mm 3 m/s 752 mmHg 69%
    15:00 +34°C° 0,1 mm 3 m/s 752 mmHg 67%
    16:00 +33°C° 0,1 mm 3 m/s 752 mmHg 72%
    17:00 +31°C° 0,1 mm 2 m/s 752 mmHg 77%
    18:00 +30°C° 0,1 mm 2 m/s 752 mmHg 81%
    19:00 +30°C° 0,1 mm 2 m/s 752 mmHg 84%
    20:00 +29°C° 0,1 mm 2 m/s 753 mmHg 86%
    21:00 +29°C° 0,1 mm 2 m/s 754 mmHg 88%
    22:00 +29°C° 0,2 mm 2 m/s 754 mmHg 88%
    23:00 +28°C° 0,2 mm 1 m/s 754 mmHg 88%

    Depois de amanhã, 18 Julho, Quarta-feira

    Tempo Temperatura Precipitação Vento Pressão Humidade
    00:00 +28°C° 0,2 mm 1 m/s 754 mmHg 89%
    01:00 +28°C° 0,2 mm 1 m/s 754 mmHg 89%
    02:00 +28°C° 0,2 mm 1 m/s 754 mmHg 89%
    03:00 +28°C° 0,2 mm 1 m/s 754 mmHg 90%
    04:00 +28°C° 0,3 mm 1 m/s 754 mmHg 87%
    05:00 +29°C° 0,3 mm 1 m/s 755 mmHg 85%
    06:00 +29°C° 0,3 mm 1 m/s 755 mmHg 83%
    07:00 +31°C° 0,1 mm 1 m/s 755 mmHg 76%
    08:00 +32°C° 0,1 mm 1 m/s 755 mmHg 69%
    09:00 +34°C° 0,1 mm 1 m/s 754 mmHg 63%
    10:00 +36°C° 0 mm 2 m/s 754 mmHg 58%
    11:00 +38°C° 0 mm 2 m/s 753 mmHg 54%
    12:00 +39°C° 0 mm 3 m/s 753 mmHg 50%
    13:00 +39°C° 0 mm 3 m/s 752 mmHg 52%
    14:00 +39°C° 0 mm 3 m/s 752 mmHg 54%
    15:00 +39°C° 0 mm 3 m/s 751 mmHg 56%
    16:00 +37°C° 0 mm 3 m/s 751 mmHg 62%
    17:00 +36°C° 0 mm 3 m/s 751 mmHg 68%
    18:00 +35°C° 0 mm 3 m/s 751 mmHg 74%
    19:00 +34°C° 0 mm 2 m/s 752 mmHg 78%
    20:00 +32°C° 0 mm 1 m/s 752 mmHg 82%
    21:00 +31°C° 0 mm 1 m/s 753 mmHg 86%
    22:00 +31°C° 0 mm 1 m/s 753 mmHg 85%
    23:00 +30°C° 0 mm 1 m/s 752 mmHg 85%

    19 Julho, Quinta-feira

    Tempo Temperatura Precipitação Vento Pressão Humidade
    00:00 +30°C° 0 mm 1 m/s 752 mmHg 84%
    01:00 +30°C° 0 mm 1 m/s 752 mmHg 83%
    02:00 +28°C° 0 mm 0 m/s 752 mmHg 82%
    03:00 +28°C° 0 mm 0 m/s 753 mmHg 81%
    04:00 +28°C° 0 mm 0 m/s 753 mmHg 78%
    05:00 +29°C° 0 mm 0 m/s 753 mmHg 74%
    06:00 +30°C° 0 mm 0 m/s 754 mmHg 70%
    07:00 +34°C° 0 mm 1 m/s 754 mmHg 63%
    08:00 +36°C° 0 mm 1 m/s 753 mmHg 56%
    09:00 +39°C° 0 mm 2 m/s 753 mmHg 50%
    10:00 +40°C° 0 mm 2 m/s 753 mmHg 47%
    11:00 +41°C° 0 mm 2 m/s 753 mmHg 44%
    12:00 +43°C° 0 mm 3 m/s 752 mmHg 41%
    13:00 +43°C° 0 mm 3 m/s 752 mmHg 44%
    14:00 +43°C° 0 mm 3 m/s 751 mmHg 46%
    15:00 +43°C° 0 mm 3 m/s 751 mmHg 48%
    16:00 +40°C° 0 mm 3 m/s 751 mmHg 54%
    17:00 +39°C° 0 mm 3 m/s 751 mmHg 60%
    18:00 +37°C° 0 mm 2 m/s 751 mmHg 66%
    19:00 +36°C° 0 mm 2 m/s 751 mmHg 72%
    20:00 +34°C° 0 mm 1 m/s 752 mmHg 78%
    21:00 +30°C° 0 mm 0 m/s 752 mmHg 83%
    22:00 +30°C° 0 mm 0 m/s 752 mmHg 83%
    23:00 +32°C° 0 mm 1 m/s 752 mmHg 83%

    20 Julho, Sexta-feira

    Tempo Temperatura Precipitação Vento Pressão Humidade
    00:00 +31°C° 0 mm 1 m/s 752 mmHg 82%
    01:00 +31°C° 0 mm 1 m/s 752 mmHg 83%
    02:00 +31°C° 0 mm 1 m/s 752 mmHg 84%
    03:00 +30°C° 0 mm 1 m/s 753 mmHg 85%
    04:00 +31°C° 0 mm 1 m/s 753 mmHg 81%
    05:00 +31°C° 0 mm 1 m/s 753 mmHg 78%
    06:00 +32°C° 0 mm 1 m/s 753 mmHg 74%
    07:00 +34°C° 0 mm 1 m/s 753 mmHg 66%
    08:00 +37°C° 0 mm 2 m/s 753 mmHg 58%
    09:00 +39°C° 0 mm 2 m/s 753 mmHg 50%
    10:00 +40°C° 0 mm 3 m/s 753 mmHg 48%
    11:00 +42°C° 0 mm 3 m/s 752 mmHg 45%
    12:00 +43°C° 0 mm 3 m/s 752 mmHg 43%
    13:00 +43°C° 0 mm 3 m/s 751 mmHg 45%
    14:00 +42°C° 0 mm 3 m/s 751 mmHg 47%
    15:00 +42°C° 0 mm 3 m/s 751 mmHg 49%
    16:00 +40°C° 0 mm 3 m/s 751 mmHg 54%
    17:00 +38°C° 0 mm 3 m/s 751 mmHg 59%
    18:00 +37°C° 0 mm 2 m/s 751 mmHg 64%
    19:00 +36°C° 0 mm 2 m/s 751 mmHg 69%
    20:00 +33°C° 0 mm 1 m/s 751 mmHg 73%
    21:00 +30°C° 0 mm 0 m/s 751 mmHg 78%
    22:00 +32°C° 0 mm 1 m/s 751 mmHg 78%
    23:00 +32°C° 0 mm 1 m/s 751 mmHg 78%

    21 Julho, Sábado

    Tempo Temperatura Precipitação Vento Pressão Humidade
    00:00 +31°C° 0 mm 1 m/s 751 mmHg 78%
    01:00 +31°C° 0 mm 1 m/s 751 mmHg 78%
    02:00 +31°C° 0 mm 1 m/s 751 mmHg 79%
    03:00 +30°C° 0 mm 1 m/s 751 mmHg 80%
    04:00 +31°C° 0 mm 1 m/s 751 mmHg 75%
    05:00 +32°C° 0 mm 1 m/s 752 mmHg 71%
    06:00 +33°C° 0 mm 1 m/s 752 mmHg 67%
    07:00 +35°C° 0 mm 2 m/s 752 mmHg 60%
    08:00 +37°C° 0 mm 2 m/s 752 mmHg 54%
    09:00 +39°C° 0 mm 3 m/s 752 mmHg 47%
    10:00 +40°C° 0 mm 3 m/s 751 mmHg 46%
    11:00 +42°C° 0 mm 3 m/s 751 mmHg 45%
    12:00 +42°C° 0 mm 4 m/s 751 mmHg 44%
    13:00 +42°C° 0 mm 4 m/s 750 mmHg 46%
    14:00 +40°C° 0 mm 3 m/s 750 mmHg 48%
    15:00 +40°C° 0 mm 3 m/s 750 mmHg 51%
    16:00 +38°C° 0 mm 3 m/s 750 mmHg 55%
    17:00 +37°C° 0 mm 3 m/s 750 mmHg 59%
    18:00 +35°C° 0 mm 3 m/s 750 mmHg 64%
    19:00 +34°C° 0 mm 3 m/s 751 mmHg 67%
    20:00 +32°C° 0 mm 2 m/s 751 mmHg 70%
    21:00 +31°C° 0 mm 2 m/s 751 mmHg 73%
    22:00 +31°C° 0 mm 2 m/s 751 mmHg 71%
    23:00 +30°C° 0 mm 2 m/s 752 mmHg 70%
    Mostrar mais